Index of /20260509/WXO-DD/model_rdps/10km/12/006
Name Last modified Size Description
Parent Directory -
20260509T12Z_MSC_RDPS_AbsoluteVorticity_IsbL-0250_RLatLon0.09_PT006H.grib2 2026-05-09 14:40 603K
20260509T12Z_MSC_RDPS_AbsoluteVorticity_IsbL-0500_RLatLon0.09_PT006H.grib2 2026-05-09 14:40 558K
20260509T12Z_MSC_RDPS_AbsoluteVorticity_IsbL-0700_RLatLon0.09_PT006H.grib2 2026-05-09 14:40 629K
20260509T12Z_MSC_RDPS_AbsoluteVorticity_IsbL-0850_RLatLon0.09_PT006H.grib2 2026-05-09 14:40 797K
20260509T12Z_MSC_RDPS_AirTemp_AGL-120m_RLatLon0.09_PT006H.grib2 2026-05-09 14:40 377K
20260509T12Z_MSC_RDPS_AirTemp_AGL-2m_RLatLon0.09_PT006H.grib2 2026-05-09 14:40 626K
20260509T12Z_MSC_RDPS_AirTemp_AGL-40m_RLatLon0.09_PT006H.grib2 2026-05-09 14:40 385K
20260509T12Z_MSC_RDPS_AirTemp_AGL-80m_RLatLon0.09_PT006H.grib2 2026-05-09 14:40 380K
20260509T12Z_MSC_RDPS_AirTemp_IsbL-0001_RLatLon0.09_PT006H.grib2 2026-05-09 14:40 325K
20260509T12Z_MSC_RDPS_AirTemp_IsbL-0005_RLatLon0.09_PT006H.grib2 2026-05-09 14:40 281K
20260509T12Z_MSC_RDPS_AirTemp_IsbL-0010_RLatLon0.09_PT006H.grib2 2026-05-09 14:40 344K
20260509T12Z_MSC_RDPS_AirTemp_IsbL-0020_RLatLon0.09_PT006H.grib2 2026-05-09 14:40 393K
20260509T12Z_MSC_RDPS_AirTemp_IsbL-0030_RLatLon0.09_PT006H.grib2 2026-05-09 14:40 320K
20260509T12Z_MSC_RDPS_AirTemp_IsbL-0050_RLatLon0.09_PT006H.grib2 2026-05-09 14:40 297K
20260509T12Z_MSC_RDPS_AirTemp_IsbL-0100_RLatLon0.09_PT006H.grib2 2026-05-09 14:40 416K
20260509T12Z_MSC_RDPS_AirTemp_IsbL-0150_RLatLon0.09_PT006H.grib2 2026-05-09 14:40 405K
20260509T12Z_MSC_RDPS_AirTemp_IsbL-0175_RLatLon0.09_PT006H.grib2 2026-05-09 14:40 402K
20260509T12Z_MSC_RDPS_AirTemp_IsbL-0200_RLatLon0.09_PT006H.grib2 2026-05-09 14:40 408K
20260509T12Z_MSC_RDPS_AirTemp_IsbL-0225_RLatLon0.09_PT006H.grib2 2026-05-09 14:40 410K
20260509T12Z_MSC_RDPS_AirTemp_IsbL-0250_RLatLon0.09_PT006H.grib2 2026-05-09 14:40 420K
20260509T12Z_MSC_RDPS_AirTemp_IsbL-0275_RLatLon0.09_PT006H.grib2 2026-05-09 14:40 402K
20260509T12Z_MSC_RDPS_AirTemp_IsbL-0300_RLatLon0.09_PT006H.grib2 2026-05-09 14:40 432K
20260509T12Z_MSC_RDPS_AirTemp_IsbL-0350_RLatLon0.09_PT006H.grib2 2026-05-09 14:40 420K
20260509T12Z_MSC_RDPS_AirTemp_IsbL-0400_RLatLon0.09_PT006H.grib2 2026-05-09 14:40 422K
20260509T12Z_MSC_RDPS_AirTemp_IsbL-0450_RLatLon0.09_PT006H.grib2 2026-05-09 14:40 432K
20260509T12Z_MSC_RDPS_AirTemp_IsbL-0500_RLatLon0.09_PT006H.grib2 2026-05-09 14:40 444K
20260509T12Z_MSC_RDPS_AirTemp_IsbL-0550_RLatLon0.09_PT006H.grib2 2026-05-09 14:40 464K
20260509T12Z_MSC_RDPS_AirTemp_IsbL-0600_RLatLon0.09_PT006H.grib2 2026-05-09 14:40 486K
20260509T12Z_MSC_RDPS_AirTemp_IsbL-0650_RLatLon0.09_PT006H.grib2 2026-05-09 14:40 505K
20260509T12Z_MSC_RDPS_AirTemp_IsbL-0700_RLatLon0.09_PT006H.grib2 2026-05-09 14:40 535K
20260509T12Z_MSC_RDPS_AirTemp_IsbL-0750_RLatLon0.09_PT006H.grib2 2026-05-09 14:40 544K
20260509T12Z_MSC_RDPS_AirTemp_IsbL-0800_RLatLon0.09_PT006H.grib2 2026-05-09 14:40 595K
20260509T12Z_MSC_RDPS_AirTemp_IsbL-0850_RLatLon0.09_PT006H.grib2 2026-05-09 14:40 639K
20260509T12Z_MSC_RDPS_AirTemp_IsbL-0875_RLatLon0.09_PT006H.grib2 2026-05-09 14:40 656K
20260509T12Z_MSC_RDPS_AirTemp_IsbL-0900_RLatLon0.09_PT006H.grib2 2026-05-09 14:40 532K
20260509T12Z_MSC_RDPS_AirTemp_IsbL-0925_RLatLon0.09_PT006H.grib2 2026-05-09 14:40 535K
20260509T12Z_MSC_RDPS_AirTemp_IsbL-0950_RLatLon0.09_PT006H.grib2 2026-05-09 14:40 536K
20260509T12Z_MSC_RDPS_AirTemp_IsbL-0970_RLatLon0.09_PT006H.grib2 2026-05-09 14:40 529K
20260509T12Z_MSC_RDPS_AirTemp_IsbL-0985_RLatLon0.09_PT006H.grib2 2026-05-09 14:40 512K
20260509T12Z_MSC_RDPS_AirTemp_IsbL-1000_RLatLon0.09_PT006H.grib2 2026-05-09 14:40 499K
20260509T12Z_MSC_RDPS_AirTemp_IsbL-1015_RLatLon0.09_PT006H.grib2 2026-05-09 14:40 499K
20260509T12Z_MSC_RDPS_Albedo_Sfc_RLatLon0.09_PT006H.grib2 2026-05-09 14:40 156K
20260509T12Z_MSC_RDPS_CAPE_Sfc_RLatLon0.09_PT006H.grib2 2026-05-09 14:40 1.9M
20260509T12Z_MSC_RDPS_CIN_Sfc_RLatLon0.09_PT006H.grib2 2026-05-09 14:40 1.3M
20260509T12Z_MSC_RDPS_CloudWater_EAtm_RLatLon0.09_PT006H.grib2 2026-05-09 14:40 225K
20260509T12Z_MSC_RDPS_ConvectivePrecip-Accum_Sfc_RLatLon0.09_PT006H.grib2 2026-05-09 14:40 508K
20260509T12Z_MSC_RDPS_DewPointDepression_AGL-2m_RLatLon0.09_PT006H.grib2 2026-05-09 14:40 423K
20260509T12Z_MSC_RDPS_DewPointDepression_IsbL-0001_RLatLon0.09_PT006H.grib2 2026-05-09 14:40 193
20260509T12Z_MSC_RDPS_DewPointDepression_IsbL-0005_RLatLon0.09_PT006H.grib2 2026-05-09 14:40 193
20260509T12Z_MSC_RDPS_DewPointDepression_IsbL-0010_RLatLon0.09_PT006H.grib2 2026-05-09 14:40 193
20260509T12Z_MSC_RDPS_DewPointDepression_IsbL-0020_RLatLon0.09_PT006H.grib2 2026-05-09 14:40 193
20260509T12Z_MSC_RDPS_DewPointDepression_IsbL-0030_RLatLon0.09_PT006H.grib2 2026-05-09 14:40 193
20260509T12Z_MSC_RDPS_DewPointDepression_IsbL-0050_RLatLon0.09_PT006H.grib2 2026-05-09 14:40 80K
20260509T12Z_MSC_RDPS_DewPointDepression_IsbL-0100_RLatLon0.09_PT006H.grib2 2026-05-09 14:40 112K
20260509T12Z_MSC_RDPS_DewPointDepression_IsbL-0150_RLatLon0.09_PT006H.grib2 2026-05-09 14:40 149K
20260509T12Z_MSC_RDPS_DewPointDepression_IsbL-0175_RLatLon0.09_PT006H.grib2 2026-05-09 14:40 178K
20260509T12Z_MSC_RDPS_DewPointDepression_IsbL-0200_RLatLon0.09_PT006H.grib2 2026-05-09 14:40 220K
20260509T12Z_MSC_RDPS_DewPointDepression_IsbL-0225_RLatLon0.09_PT006H.grib2 2026-05-09 14:40 264K
20260509T12Z_MSC_RDPS_DewPointDepression_IsbL-0250_RLatLon0.09_PT006H.grib2 2026-05-09 14:40 304K
20260509T12Z_MSC_RDPS_DewPointDepression_IsbL-0275_RLatLon0.09_PT006H.grib2 2026-05-09 14:40 309K
20260509T12Z_MSC_RDPS_DewPointDepression_IsbL-0300_RLatLon0.09_PT006H.grib2 2026-05-09 14:40 319K
20260509T12Z_MSC_RDPS_DewPointDepression_IsbL-0350_RLatLon0.09_PT006H.grib2 2026-05-09 14:40 318K
20260509T12Z_MSC_RDPS_DewPointDepression_IsbL-0400_RLatLon0.09_PT006H.grib2 2026-05-09 14:40 326K
20260509T12Z_MSC_RDPS_DewPointDepression_IsbL-0450_RLatLon0.09_PT006H.grib2 2026-05-09 14:40 328K
20260509T12Z_MSC_RDPS_DewPointDepression_IsbL-0500_RLatLon0.09_PT006H.grib2 2026-05-09 14:40 332K
20260509T12Z_MSC_RDPS_DewPointDepression_IsbL-0550_RLatLon0.09_PT006H.grib2 2026-05-09 14:40 344K
20260509T12Z_MSC_RDPS_DewPointDepression_IsbL-0600_RLatLon0.09_PT006H.grib2 2026-05-09 14:40 360K
20260509T12Z_MSC_RDPS_DewPointDepression_IsbL-0650_RLatLon0.09_PT006H.grib2 2026-05-09 14:40 375K
20260509T12Z_MSC_RDPS_DewPointDepression_IsbL-0700_RLatLon0.09_PT006H.grib2 2026-05-09 14:40 391K
20260509T12Z_MSC_RDPS_DewPointDepression_IsbL-0750_RLatLon0.09_PT006H.grib2 2026-05-09 14:40 418K
20260509T12Z_MSC_RDPS_DewPointDepression_IsbL-0800_RLatLon0.09_PT006H.grib2 2026-05-09 14:40 461K
20260509T12Z_MSC_RDPS_DewPointDepression_IsbL-0850_RLatLon0.09_PT006H.grib2 2026-05-09 14:40 480K
20260509T12Z_MSC_RDPS_DewPointDepression_IsbL-0875_RLatLon0.09_PT006H.grib2 2026-05-09 14:40 475K
20260509T12Z_MSC_RDPS_DewPointDepression_IsbL-0900_RLatLon0.09_PT006H.grib2 2026-05-09 14:40 465K
20260509T12Z_MSC_RDPS_DewPointDepression_IsbL-0925_RLatLon0.09_PT006H.grib2 2026-05-09 14:40 453K
20260509T12Z_MSC_RDPS_DewPointDepression_IsbL-0950_RLatLon0.09_PT006H.grib2 2026-05-09 14:40 444K
20260509T12Z_MSC_RDPS_DewPointDepression_IsbL-0970_RLatLon0.09_PT006H.grib2 2026-05-09 14:40 437K
20260509T12Z_MSC_RDPS_DewPointDepression_IsbL-0985_RLatLon0.09_PT006H.grib2 2026-05-09 14:40 431K
20260509T12Z_MSC_RDPS_DewPointDepression_IsbL-1000_RLatLon0.09_PT006H.grib2 2026-05-09 14:40 425K
20260509T12Z_MSC_RDPS_DewPointDepression_IsbL-1015_RLatLon0.09_PT006H.grib2 2026-05-09 14:40 418K
20260509T12Z_MSC_RDPS_DewPoint_AGL-2m_RLatLon0.09_PT006H.grib2 2026-05-09 14:40 398K
20260509T12Z_MSC_RDPS_DownwardLongwaveRadiationFlux-Accum_Sfc_RLatLon0.09_PT006H.grib2 2026-05-09 14:40 495K
20260509T12Z_MSC_RDPS_DownwardShortwaveRadiationFlux-Accum_NTAtm_RLatLon0.09_PT006H.grib2 2026-05-09 14:40 108K
20260509T12Z_MSC_RDPS_DownwardShortwaveRadiationFlux-Accum_Sfc_RLatLon0.09_PT006H.grib2 2026-05-09 14:40 591K
20260509T12Z_MSC_RDPS_FreezingRain-Accum1h_Sfc_RLatLon0.09_PT006H.grib2 2026-05-09 14:40 11K
20260509T12Z_MSC_RDPS_FreezingRain-Accum3h_Sfc_RLatLon0.09_PT006H.grib2 2026-05-09 14:40 19K
20260509T12Z_MSC_RDPS_FreezingRain-Accum6h_Sfc_RLatLon0.09_PT006H.grib2 2026-05-09 14:40 40K
20260509T12Z_MSC_RDPS_FreezingRain-Accum_Sfc_RLatLon0.09_PT006H.grib2 2026-05-09 14:40 50K
20260509T12Z_MSC_RDPS_GeopotentialHeight_IsbL-0001_RLatLon0.09_PT006H.grib2 2026-05-09 14:40 277K
20260509T12Z_MSC_RDPS_GeopotentialHeight_IsbL-0005_RLatLon0.09_PT006H.grib2 2026-05-09 14:40 341K
20260509T12Z_MSC_RDPS_GeopotentialHeight_IsbL-0010_RLatLon0.09_PT006H.grib2 2026-05-09 14:40 308K
20260509T12Z_MSC_RDPS_GeopotentialHeight_IsbL-0020_RLatLon0.09_PT006H.grib2 2026-05-09 14:40 307K
20260509T12Z_MSC_RDPS_GeopotentialHeight_IsbL-0030_RLatLon0.09_PT006H.grib2 2026-05-09 14:40 404K
20260509T12Z_MSC_RDPS_GeopotentialHeight_IsbL-0050_RLatLon0.09_PT006H.grib2 2026-05-09 14:40 309K
20260509T12Z_MSC_RDPS_GeopotentialHeight_IsbL-0100_RLatLon0.09_PT006H.grib2 2026-05-09 14:40 285K
20260509T12Z_MSC_RDPS_GeopotentialHeight_IsbL-0150_RLatLon0.09_PT006H.grib2 2026-05-09 14:40 227K
20260509T12Z_MSC_RDPS_GeopotentialHeight_IsbL-0175_RLatLon0.09_PT006H.grib2 2026-05-09 14:40 230K
20260509T12Z_MSC_RDPS_GeopotentialHeight_IsbL-0200_RLatLon0.09_PT006H.grib2 2026-05-09 14:40 233K
20260509T12Z_MSC_RDPS_GeopotentialHeight_IsbL-0225_RLatLon0.09_PT006H.grib2 2026-05-09 14:40 266K
20260509T12Z_MSC_RDPS_GeopotentialHeight_IsbL-0250_RLatLon0.09_PT006H.grib2 2026-05-09 14:40 267K
20260509T12Z_MSC_RDPS_GeopotentialHeight_IsbL-0275_RLatLon0.09_PT006H.grib2 2026-05-09 14:40 267K
20260509T12Z_MSC_RDPS_GeopotentialHeight_IsbL-0300_RLatLon0.09_PT006H.grib2 2026-05-09 14:40 237K
20260509T12Z_MSC_RDPS_GeopotentialHeight_IsbL-0350_RLatLon0.09_PT006H.grib2 2026-05-09 14:40 233K
20260509T12Z_MSC_RDPS_GeopotentialHeight_IsbL-0400_RLatLon0.09_PT006H.grib2 2026-05-09 14:40 229K
20260509T12Z_MSC_RDPS_GeopotentialHeight_IsbL-0450_RLatLon0.09_PT006H.grib2 2026-05-09 14:40 296K
20260509T12Z_MSC_RDPS_GeopotentialHeight_IsbL-0500_RLatLon0.09_PT006H.grib2 2026-05-09 14:40 291K
20260509T12Z_MSC_RDPS_GeopotentialHeight_IsbL-0550_RLatLon0.09_PT006H.grib2 2026-05-09 14:40 288K
20260509T12Z_MSC_RDPS_GeopotentialHeight_IsbL-0600_RLatLon0.09_PT006H.grib2 2026-05-09 14:40 285K
20260509T12Z_MSC_RDPS_GeopotentialHeight_IsbL-0650_RLatLon0.09_PT006H.grib2 2026-05-09 14:40 258K
20260509T12Z_MSC_RDPS_GeopotentialHeight_IsbL-0700_RLatLon0.09_PT006H.grib2 2026-05-09 14:40 259K
20260509T12Z_MSC_RDPS_GeopotentialHeight_IsbL-0750_RLatLon0.09_PT006H.grib2 2026-05-09 14:40 263K
20260509T12Z_MSC_RDPS_GeopotentialHeight_IsbL-0800_RLatLon0.09_PT006H.grib2 2026-05-09 14:40 271K
20260509T12Z_MSC_RDPS_GeopotentialHeight_IsbL-0850_RLatLon0.09_PT006H.grib2 2026-05-09 14:40 275K
20260509T12Z_MSC_RDPS_GeopotentialHeight_IsbL-0875_RLatLon0.09_PT006H.grib2 2026-05-09 14:40 278K
20260509T12Z_MSC_RDPS_GeopotentialHeight_IsbL-0900_RLatLon0.09_PT006H.grib2 2026-05-09 14:40 281K
20260509T12Z_MSC_RDPS_GeopotentialHeight_IsbL-0925_RLatLon0.09_PT006H.grib2 2026-05-09 14:40 284K
20260509T12Z_MSC_RDPS_GeopotentialHeight_IsbL-0950_RLatLon0.09_PT006H.grib2 2026-05-09 14:40 290K
20260509T12Z_MSC_RDPS_GeopotentialHeight_IsbL-0970_RLatLon0.09_PT006H.grib2 2026-05-09 14:40 296K
20260509T12Z_MSC_RDPS_GeopotentialHeight_IsbL-0985_RLatLon0.09_PT006H.grib2 2026-05-09 14:40 303K
20260509T12Z_MSC_RDPS_GeopotentialHeight_IsbL-1000_RLatLon0.09_PT006H.grib2 2026-05-09 14:40 312K
20260509T12Z_MSC_RDPS_GeopotentialHeight_IsbL-1015_RLatLon0.09_PT006H.grib2 2026-05-09 14:40 324K
20260509T12Z_MSC_RDPS_HighLowPressure_MSL_RLatLon0.09_PT006H.json 2026-05-09 14:32 23K
20260509T12Z_MSC_RDPS_Humidex_Sfc_RLatLon0.09_PT006H.grib2 2026-05-09 14:40 2.4M
20260509T12Z_MSC_RDPS_IcePellets-Accum1h_Sfc_RLatLon0.09_PT006H.grib2 2026-05-09 14:40 6.3K
20260509T12Z_MSC_RDPS_IcePellets-Accum3h_Sfc_RLatLon0.09_PT006H.grib2 2026-05-09 14:40 7.5K
20260509T12Z_MSC_RDPS_IcePellets-Accum6h_Sfc_RLatLon0.09_PT006H.grib2 2026-05-09 14:40 12K
20260509T12Z_MSC_RDPS_IcePellets-Accum_Sfc_RLatLon0.09_PT006H.grib2 2026-05-09 14:40 13K
20260509T12Z_MSC_RDPS_KIndex_Sfc_RLatLon0.09_PT006H.grib2 2026-05-09 14:40 2.4M
20260509T12Z_MSC_RDPS_LatentHeatNetFlux_Sfc_RLatLon0.09_PT006H.grib2 2026-05-09 14:40 413K
20260509T12Z_MSC_RDPS_LiftedIndex-MU-VT_IsbL-0500_RLatLon0.09_PT006H.grib2 2026-05-09 14:40 2.4M
20260509T12Z_MSC_RDPS_NetLongwaveRadiationFlux-Accum_Sfc_RLatLon0.09_PT006H.grib2 2026-05-09 14:40 558K
20260509T12Z_MSC_RDPS_NetShortwaveRadiationFlux-Accum_Sfc_RLatLon0.09_PT006H.grib2 2026-05-09 14:40 580K
20260509T12Z_MSC_RDPS_PlanetaryBoundaryLayerHeight_Sfc_RLatLon0.09_PT006H.grib2 2026-05-09 14:40 1.0M
20260509T12Z_MSC_RDPS_Precip-Accum1h_Sfc_RLatLon0.09_PT006H.grib2 2026-05-09 14:40 1.2M
20260509T12Z_MSC_RDPS_Precip-Accum3h_Sfc_RLatLon0.09_PT006H.grib2 2026-05-09 14:40 1.3M
20260509T12Z_MSC_RDPS_Precip-Accum6h_Sfc_RLatLon0.09_PT006H.grib2 2026-05-09 14:40 1.5M
20260509T12Z_MSC_RDPS_Precip-Accum_Sfc_RLatLon0.09_PT006H.grib2 2026-05-09 14:40 1.5M
20260509T12Z_MSC_RDPS_PrecipRate_Sfc_RLatLon0.09_PT006H.grib2 2026-05-09 14:40 180K
20260509T12Z_MSC_RDPS_PrecipType-Instant_Sfc_RLatLon0.09_PT006H.grib2 2026-05-09 14:40 597K
20260509T12Z_MSC_RDPS_Pressure-Trend3h_Sfc_RLatLon0.09_PT006H.grib2 2026-05-09 14:40 1.2M
20260509T12Z_MSC_RDPS_Pressure_MSL_RLatLon0.09_PT006H.grib2 2026-05-09 14:40 334K
20260509T12Z_MSC_RDPS_Pressure_PVU-1.5_RLatLon0.09_PT006H.grib2 2026-05-09 14:40 2.3M
20260509T12Z_MSC_RDPS_Pressure_PVU-1_RLatLon0.09_PT006H.grib2 2026-05-09 14:40 2.4M
20260509T12Z_MSC_RDPS_Pressure_PVU-2_RLatLon0.09_PT006H.grib2 2026-05-09 14:40 2.4M
20260509T12Z_MSC_RDPS_Pressure_Sfc_RLatLon0.09_PT006H.grib2 2026-05-09 14:40 500K
20260509T12Z_MSC_RDPS_RadiativeTemp_Sfc_RLatLon0.09_PT006H.grib2 2026-05-09 14:40 327K
20260509T12Z_MSC_RDPS_Rain-Accum1h_Sfc_RLatLon0.09_PT006H.grib2 2026-05-09 14:40 646K
20260509T12Z_MSC_RDPS_Rain-Accum3h_Sfc_RLatLon0.09_PT006H.grib2 2026-05-09 14:40 735K
20260509T12Z_MSC_RDPS_Rain-Accum6h_Sfc_RLatLon0.09_PT006H.grib2 2026-05-09 14:40 1.0M
20260509T12Z_MSC_RDPS_Rain-Accum_Sfc_RLatLon0.09_PT006H.grib2 2026-05-09 14:40 1.1M
20260509T12Z_MSC_RDPS_RelativeHumidity_AGL-2m_RLatLon0.09_PT006H.grib2 2026-05-09 14:40 1.0M
20260509T12Z_MSC_RDPS_RelativeHumidity_IsbL-0010_RLatLon0.09_PT006H.grib2 2026-05-09 14:40 613K
20260509T12Z_MSC_RDPS_RelativeHumidity_IsbL-0020_RLatLon0.09_PT006H.grib2 2026-05-09 14:40 644K
20260509T12Z_MSC_RDPS_RelativeHumidity_IsbL-0030_RLatLon0.09_PT006H.grib2 2026-05-09 14:40 624K
20260509T12Z_MSC_RDPS_RelativeHumidity_IsbL-0050_RLatLon0.09_PT006H.grib2 2026-05-09 14:40 352K
20260509T12Z_MSC_RDPS_RelativeHumidity_IsbL-0100_RLatLon0.09_PT006H.grib2 2026-05-09 14:40 278K
20260509T12Z_MSC_RDPS_RelativeHumidity_IsbL-0150_RLatLon0.09_PT006H.grib2 2026-05-09 14:40 415K
20260509T12Z_MSC_RDPS_RelativeHumidity_IsbL-0175_RLatLon0.09_PT006H.grib2 2026-05-09 14:40 473K
20260509T12Z_MSC_RDPS_RelativeHumidity_IsbL-0200_RLatLon0.09_PT006H.grib2 2026-05-09 14:40 543K
20260509T12Z_MSC_RDPS_RelativeHumidity_IsbL-0225_RLatLon0.09_PT006H.grib2 2026-05-09 14:40 614K
20260509T12Z_MSC_RDPS_RelativeHumidity_IsbL-0250_RLatLon0.09_PT006H.grib2 2026-05-09 14:40 686K
20260509T12Z_MSC_RDPS_RelativeHumidity_IsbL-0275_RLatLon0.09_PT006H.grib2 2026-05-09 14:40 715K
20260509T12Z_MSC_RDPS_RelativeHumidity_IsbL-0300_RLatLon0.09_PT006H.grib2 2026-05-09 14:40 750K
20260509T12Z_MSC_RDPS_RelativeHumidity_IsbL-0350_RLatLon0.09_PT006H.grib2 2026-05-09 14:40 756K
20260509T12Z_MSC_RDPS_RelativeHumidity_IsbL-0400_RLatLon0.09_PT006H.grib2 2026-05-09 14:40 769K
20260509T12Z_MSC_RDPS_RelativeHumidity_IsbL-0450_RLatLon0.09_PT006H.grib2 2026-05-09 14:40 775K
20260509T12Z_MSC_RDPS_RelativeHumidity_IsbL-0500_RLatLon0.09_PT006H.grib2 2026-05-09 14:40 796K
20260509T12Z_MSC_RDPS_RelativeHumidity_IsbL-0550_RLatLon0.09_PT006H.grib2 2026-05-09 14:40 812K
20260509T12Z_MSC_RDPS_RelativeHumidity_IsbL-0600_RLatLon0.09_PT006H.grib2 2026-05-09 14:40 836K
20260509T12Z_MSC_RDPS_RelativeHumidity_IsbL-0650_RLatLon0.09_PT006H.grib2 2026-05-09 14:40 855K
20260509T12Z_MSC_RDPS_RelativeHumidity_IsbL-0700_RLatLon0.09_PT006H.grib2 2026-05-09 14:40 889K
20260509T12Z_MSC_RDPS_RelativeHumidity_IsbL-0750_RLatLon0.09_PT006H.grib2 2026-05-09 14:40 945K
20260509T12Z_MSC_RDPS_RelativeHumidity_IsbL-0800_RLatLon0.09_PT006H.grib2 2026-05-09 14:40 1.0M
20260509T12Z_MSC_RDPS_RelativeHumidity_IsbL-0850_RLatLon0.09_PT006H.grib2 2026-05-09 14:40 1.1M
20260509T12Z_MSC_RDPS_RelativeHumidity_IsbL-0875_RLatLon0.09_PT006H.grib2 2026-05-09 14:40 1.1M
20260509T12Z_MSC_RDPS_RelativeHumidity_IsbL-0900_RLatLon0.09_PT006H.grib2 2026-05-09 14:40 1.1M
20260509T12Z_MSC_RDPS_RelativeHumidity_IsbL-0925_RLatLon0.09_PT006H.grib2 2026-05-09 14:40 1.1M
20260509T12Z_MSC_RDPS_RelativeHumidity_IsbL-0950_RLatLon0.09_PT006H.grib2 2026-05-09 14:40 1.1M
20260509T12Z_MSC_RDPS_RelativeHumidity_IsbL-0970_RLatLon0.09_PT006H.grib2 2026-05-09 14:40 1.0M
20260509T12Z_MSC_RDPS_RelativeHumidity_IsbL-0985_RLatLon0.09_PT006H.grib2 2026-05-09 14:40 1.0M
20260509T12Z_MSC_RDPS_RelativeHumidity_IsbL-1000_RLatLon0.09_PT006H.grib2 2026-05-09 14:40 1.0M
20260509T12Z_MSC_RDPS_RelativeHumidity_IsbL-1015_RLatLon0.09_PT006H.grib2 2026-05-09 14:40 1.0M
20260509T12Z_MSC_RDPS_Runoff-Accum_Sfc_RLatLon0.09_PT006H.grib2 2026-05-09 14:40 32K
20260509T12Z_MSC_RDPS_SWEATIndex_Sfc_RLatLon0.09_PT006H.grib2 2026-05-09 14:40 2.5M
20260509T12Z_MSC_RDPS_SeeingIndex_EAtm_RLatLon0.09_PT006H.grib2 2026-05-09 14:40 1.0M
20260509T12Z_MSC_RDPS_SensibleHeatNetFlux_Sfc_RLatLon0.09_PT006H.grib2 2026-05-09 14:40 286K
20260509T12Z_MSC_RDPS_ShowalterIndex_IsbL-0500_RLatLon0.09_PT006H.grib2 2026-05-09 14:40 2.6M
20260509T12Z_MSC_RDPS_SkyTransparencyIndex_EAtm_RLatLon0.09_PT006H.grib2 2026-05-09 14:40 671K
20260509T12Z_MSC_RDPS_Snow-Accum1h_Sfc_RLatLon0.09_PT006H.grib2 2026-05-09 14:40 346K
20260509T12Z_MSC_RDPS_Snow-Accum3h_Sfc_RLatLon0.09_PT006H.grib2 2026-05-09 14:40 380K
20260509T12Z_MSC_RDPS_Snow-Accum6h_Sfc_RLatLon0.09_PT006H.grib2 2026-05-09 14:40 489K
20260509T12Z_MSC_RDPS_Snow-Accum_Sfc_RLatLon0.09_PT006H.grib2 2026-05-09 14:40 555K
20260509T12Z_MSC_RDPS_SnowDensity_Sfc_RLatLon0.09_PT006H.grib2 2026-05-09 14:40 164K
20260509T12Z_MSC_RDPS_SnowDepth_Sfc_RLatLon0.09_PT006H.grib2 2026-05-09 14:40 617K
20260509T12Z_MSC_RDPS_SoilTemp_DBS-0to10cm_RLatLon0.09_PT006H.grib2 2026-05-09 14:40 205K
20260509T12Z_MSC_RDPS_SoilTemp_Sfc_RLatLon0.09_PT006H.grib2 2026-05-09 14:40 292K
20260509T12Z_MSC_RDPS_SoilVolumetricIceContent_Sfc_RLatLon0.09_PT006H.grib2 2026-05-09 14:40 145K
20260509T12Z_MSC_RDPS_SoilVolumetricWaterContent_DBS-0to10cm_RLatLon0.09_PT006H.grib2 2026-05-09 14:40 288K
20260509T12Z_MSC_RDPS_SoilVolumetricWaterContent_DBS-0to1cm_RLatLon0.09_PT006H.grib2 2026-05-09 14:40 338K
20260509T12Z_MSC_RDPS_SpecificHumidity_AGL-120m_RLatLon0.09_PT006H.grib2 2026-05-09 14:40 505K
20260509T12Z_MSC_RDPS_SpecificHumidity_AGL-2m_RLatLon0.09_PT006H.grib2 2026-05-09 14:40 676K
20260509T12Z_MSC_RDPS_SpecificHumidity_AGL-40m_RLatLon0.09_PT006H.grib2 2026-05-09 14:40 509K
20260509T12Z_MSC_RDPS_SpecificHumidity_AGL-80m_RLatLon0.09_PT006H.grib2 2026-05-09 14:40 506K
20260509T12Z_MSC_RDPS_SpecificHumidity_IsbL-0001_RLatLon0.09_PT006H.grib2 2026-05-09 14:40 402K
20260509T12Z_MSC_RDPS_SpecificHumidity_IsbL-0005_RLatLon0.09_PT006H.grib2 2026-05-09 14:40 368K
20260509T12Z_MSC_RDPS_SpecificHumidity_IsbL-0010_RLatLon0.09_PT006H.grib2 2026-05-09 14:40 393K
20260509T12Z_MSC_RDPS_SpecificHumidity_IsbL-0020_RLatLon0.09_PT006H.grib2 2026-05-09 14:40 379K
20260509T12Z_MSC_RDPS_SpecificHumidity_IsbL-0030_RLatLon0.09_PT006H.grib2 2026-05-09 14:40 372K
20260509T12Z_MSC_RDPS_SpecificHumidity_IsbL-0050_RLatLon0.09_PT006H.grib2 2026-05-09 14:40 481K
20260509T12Z_MSC_RDPS_SpecificHumidity_IsbL-0100_RLatLon0.09_PT006H.grib2 2026-05-09 14:40 409K
20260509T12Z_MSC_RDPS_SpecificHumidity_IsbL-0150_RLatLon0.09_PT006H.grib2 2026-05-09 14:40 458K
20260509T12Z_MSC_RDPS_SpecificHumidity_IsbL-0175_RLatLon0.09_PT006H.grib2 2026-05-09 14:40 438K
20260509T12Z_MSC_RDPS_SpecificHumidity_IsbL-0200_RLatLon0.09_PT006H.grib2 2026-05-09 14:40 471K
20260509T12Z_MSC_RDPS_SpecificHumidity_IsbL-0225_RLatLon0.09_PT006H.grib2 2026-05-09 14:40 462K
20260509T12Z_MSC_RDPS_SpecificHumidity_IsbL-0250_RLatLon0.09_PT006H.grib2 2026-05-09 14:40 527K
20260509T12Z_MSC_RDPS_SpecificHumidity_IsbL-0275_RLatLon0.09_PT006H.grib2 2026-05-09 14:40 486K
20260509T12Z_MSC_RDPS_SpecificHumidity_IsbL-0300_RLatLon0.09_PT006H.grib2 2026-05-09 14:40 454K
20260509T12Z_MSC_RDPS_SpecificHumidity_IsbL-0350_RLatLon0.09_PT006H.grib2 2026-05-09 14:40 439K
20260509T12Z_MSC_RDPS_SpecificHumidity_IsbL-0400_RLatLon0.09_PT006H.grib2 2026-05-09 14:40 517K
20260509T12Z_MSC_RDPS_SpecificHumidity_IsbL-0450_RLatLon0.09_PT006H.grib2 2026-05-09 14:40 568K
20260509T12Z_MSC_RDPS_SpecificHumidity_IsbL-0500_RLatLon0.09_PT006H.grib2 2026-05-09 14:40 504K
20260509T12Z_MSC_RDPS_SpecificHumidity_IsbL-0550_RLatLon0.09_PT006H.grib2 2026-05-09 14:40 576K
20260509T12Z_MSC_RDPS_SpecificHumidity_IsbL-0600_RLatLon0.09_PT006H.grib2 2026-05-09 14:40 631K
20260509T12Z_MSC_RDPS_SpecificHumidity_IsbL-0650_RLatLon0.09_PT006H.grib2 2026-05-09 14:40 553K
20260509T12Z_MSC_RDPS_SpecificHumidity_IsbL-0700_RLatLon0.09_PT006H.grib2 2026-05-09 14:40 606K
20260509T12Z_MSC_RDPS_SpecificHumidity_IsbL-0750_RLatLon0.09_PT006H.grib2 2026-05-09 14:40 687K
20260509T12Z_MSC_RDPS_SpecificHumidity_IsbL-0800_RLatLon0.09_PT006H.grib2 2026-05-09 14:40 769K
20260509T12Z_MSC_RDPS_SpecificHumidity_IsbL-0850_RLatLon0.09_PT006H.grib2 2026-05-09 14:40 695K
20260509T12Z_MSC_RDPS_SpecificHumidity_IsbL-0875_RLatLon0.09_PT006H.grib2 2026-05-09 14:40 712K
20260509T12Z_MSC_RDPS_SpecificHumidity_IsbL-0900_RLatLon0.09_PT006H.grib2 2026-05-09 14:40 720K
20260509T12Z_MSC_RDPS_SpecificHumidity_IsbL-0925_RLatLon0.09_PT006H.grib2 2026-05-09 14:40 722K
20260509T12Z_MSC_RDPS_SpecificHumidity_IsbL-0950_RLatLon0.09_PT006H.grib2 2026-05-09 14:40 721K
20260509T12Z_MSC_RDPS_SpecificHumidity_IsbL-0970_RLatLon0.09_PT006H.grib2 2026-05-09 14:40 716K
20260509T12Z_MSC_RDPS_SpecificHumidity_IsbL-0985_RLatLon0.09_PT006H.grib2 2026-05-09 14:40 708K
20260509T12Z_MSC_RDPS_SpecificHumidity_IsbL-1000_RLatLon0.09_PT006H.grib2 2026-05-09 14:40 701K
20260509T12Z_MSC_RDPS_SpecificHumidity_IsbL-1015_RLatLon0.09_PT006H.grib2 2026-05-09 14:40 690K
20260509T12Z_MSC_RDPS_SpecificHumidity_Sfc_RLatLon0.09_PT006H.grib2 2026-05-09 14:40 352K
20260509T12Z_MSC_RDPS_StormRelativeHelicity_EtaL-10000_RLatLon0.09_PT006H.grib2 2026-05-09 14:40 1.1M
20260509T12Z_MSC_RDPS_StormSeverityIndex_EtaL-10000_RLatLon0.09_PT006H.grib2 2026-05-09 14:40 1.1M
20260509T12Z_MSC_RDPS_Thickness_IsbL-0850to0700_RLatLon0.09_PT006H.grib2 2026-05-09 14:40 255K
20260509T12Z_MSC_RDPS_Thickness_IsbL-1000to0500_RLatLon0.09_PT006H.grib2 2026-05-09 14:40 200K
20260509T12Z_MSC_RDPS_Thickness_IsbL-1000to0850_RLatLon0.09_PT006H.grib2 2026-05-09 14:40 271K
20260509T12Z_MSC_RDPS_TotalCloudCover_Sfc_RLatLon0.09_PT006H.grib2 2026-05-09 14:40 643K
20260509T12Z_MSC_RDPS_TotalTotalsIndex_Sfc_RLatLon0.09_PT006H.grib2 2026-05-09 14:40 2.4M
20260509T12Z_MSC_RDPS_UVIndex-ClearSky-Max24h_Sfc_RLatLon0.09_PT006H.grib2 2026-05-09 14:40 293K
20260509T12Z_MSC_RDPS_UVIndex-ClearSky_Sfc_RLatLon0.09_PT006H.grib2 2026-05-09 14:40 233K
20260509T12Z_MSC_RDPS_UVIndex-Max24h_Sfc_RLatLon0.09_PT006H.grib2 2026-05-09 14:40 670K
20260509T12Z_MSC_RDPS_UVIndex_Sfc_RLatLon0.09_PT006H.grib2 2026-05-09 14:40 547K
20260509T12Z_MSC_RDPS_UpwardLongwaveRadiationFlux_NTAtm_RLatLon0.09_PT006H.grib2 2026-05-09 14:40 381K
20260509T12Z_MSC_RDPS_UpwardShortwaveRadiationFlux_NTAtm_RLatLon0.09_PT006H.grib2 2026-05-09 14:40 576K
20260509T12Z_MSC_RDPS_VerticalVelocity_IsbL-0250_RLatLon0.09_PT006H.grib2 2026-05-09 14:40 448K
20260509T12Z_MSC_RDPS_VerticalVelocity_IsbL-0500_RLatLon0.09_PT006H.grib2 2026-05-09 14:40 536K
20260509T12Z_MSC_RDPS_VerticalVelocity_IsbL-0700_RLatLon0.09_PT006H.grib2 2026-05-09 14:40 606K
20260509T12Z_MSC_RDPS_VerticalVelocity_IsbL-0850_RLatLon0.09_PT006H.grib2 2026-05-09 14:40 720K
20260509T12Z_MSC_RDPS_VerticalWindShear_EtaL-6500_RLatLon0.09_PT006H.grib2 2026-05-09 14:40 1.2M
20260509T12Z_MSC_RDPS_WindChill_Sfc_RLatLon0.09_PT006H.grib2 2026-05-09 14:40 1.2M
20260509T12Z_MSC_RDPS_WindDir_AGL-10m_RLatLon0.09_PT006H.grib2 2026-05-09 14:40 965K
20260509T12Z_MSC_RDPS_WindDir_AGL-120m_RLatLon0.09_PT006H.grib2 2026-05-09 14:40 614K
20260509T12Z_MSC_RDPS_WindDir_AGL-40m_RLatLon0.09_PT006H.grib2 2026-05-09 14:40 635K
20260509T12Z_MSC_RDPS_WindDir_AGL-80m_RLatLon0.09_PT006H.grib2 2026-05-09 14:40 623K
20260509T12Z_MSC_RDPS_WindDir_IsbL-0001_RLatLon0.09_PT006H.grib2 2026-05-09 14:40 271K
20260509T12Z_MSC_RDPS_WindDir_IsbL-0005_RLatLon0.09_PT006H.grib2 2026-05-09 14:40 346K
20260509T12Z_MSC_RDPS_WindDir_IsbL-0010_RLatLon0.09_PT006H.grib2 2026-05-09 14:40 370K
20260509T12Z_MSC_RDPS_WindDir_IsbL-0020_RLatLon0.09_PT006H.grib2 2026-05-09 14:40 400K
20260509T12Z_MSC_RDPS_WindDir_IsbL-0030_RLatLon0.09_PT006H.grib2 2026-05-09 14:40 394K
20260509T12Z_MSC_RDPS_WindDir_IsbL-0050_RLatLon0.09_PT006H.grib2 2026-05-09 14:40 413K
20260509T12Z_MSC_RDPS_WindDir_IsbL-0100_RLatLon0.09_PT006H.grib2 2026-05-09 14:40 411K
20260509T12Z_MSC_RDPS_WindDir_IsbL-0150_RLatLon0.09_PT006H.grib2 2026-05-09 14:40 421K
20260509T12Z_MSC_RDPS_WindDir_IsbL-0175_RLatLon0.09_PT006H.grib2 2026-05-09 14:40 444K
20260509T12Z_MSC_RDPS_WindDir_IsbL-0200_RLatLon0.09_PT006H.grib2 2026-05-09 14:40 454K
20260509T12Z_MSC_RDPS_WindDir_IsbL-0225_RLatLon0.09_PT006H.grib2 2026-05-09 14:40 462K
20260509T12Z_MSC_RDPS_WindDir_IsbL-0250_RLatLon0.09_PT006H.grib2 2026-05-09 14:40 467K
20260509T12Z_MSC_RDPS_WindDir_IsbL-0275_RLatLon0.09_PT006H.grib2 2026-05-09 14:40 487K
20260509T12Z_MSC_RDPS_WindDir_IsbL-0300_RLatLon0.09_PT006H.grib2 2026-05-09 14:40 483K
20260509T12Z_MSC_RDPS_WindDir_IsbL-0350_RLatLon0.09_PT006H.grib2 2026-05-09 14:40 503K
20260509T12Z_MSC_RDPS_WindDir_IsbL-0400_RLatLon0.09_PT006H.grib2 2026-05-09 14:40 523K
20260509T12Z_MSC_RDPS_WindDir_IsbL-0450_RLatLon0.09_PT006H.grib2 2026-05-09 14:40 539K
20260509T12Z_MSC_RDPS_WindDir_IsbL-0500_RLatLon0.09_PT006H.grib2 2026-05-09 14:40 558K
20260509T12Z_MSC_RDPS_WindDir_IsbL-0550_RLatLon0.09_PT006H.grib2 2026-05-09 14:40 574K
20260509T12Z_MSC_RDPS_WindDir_IsbL-0600_RLatLon0.09_PT006H.grib2 2026-05-09 14:40 593K
20260509T12Z_MSC_RDPS_WindDir_IsbL-0650_RLatLon0.09_PT006H.grib2 2026-05-09 14:40 631K
20260509T12Z_MSC_RDPS_WindDir_IsbL-0700_RLatLon0.09_PT006H.grib2 2026-05-09 14:40 682K
20260509T12Z_MSC_RDPS_WindDir_IsbL-0750_RLatLon0.09_PT006H.grib2 2026-05-09 14:40 739K
20260509T12Z_MSC_RDPS_WindDir_IsbL-0800_RLatLon0.09_PT006H.grib2 2026-05-09 14:40 807K
20260509T12Z_MSC_RDPS_WindDir_IsbL-0850_RLatLon0.09_PT006H.grib2 2026-05-09 14:40 874K
20260509T12Z_MSC_RDPS_WindDir_IsbL-0875_RLatLon0.09_PT006H.grib2 2026-05-09 14:40 898K
20260509T12Z_MSC_RDPS_WindDir_IsbL-0900_RLatLon0.09_PT006H.grib2 2026-05-09 14:40 911K
20260509T12Z_MSC_RDPS_WindDir_IsbL-0925_RLatLon0.09_PT006H.grib2 2026-05-09 14:40 917K
20260509T12Z_MSC_RDPS_WindDir_IsbL-0950_RLatLon0.09_PT006H.grib2 2026-05-09 14:40 913K
20260509T12Z_MSC_RDPS_WindDir_IsbL-0970_RLatLon0.09_PT006H.grib2 2026-05-09 14:40 920K
20260509T12Z_MSC_RDPS_WindDir_IsbL-0985_RLatLon0.09_PT006H.grib2 2026-05-09 14:40 927K
20260509T12Z_MSC_RDPS_WindDir_IsbL-1000_RLatLon0.09_PT006H.grib2 2026-05-09 14:40 943K
20260509T12Z_MSC_RDPS_WindDir_IsbL-1015_RLatLon0.09_PT006H.grib2 2026-05-09 14:40 958K
20260509T12Z_MSC_RDPS_WindGust-Max_AGL-10m_RLatLon0.09_PT006H.grib2 2026-05-09 14:40 1.0M
20260509T12Z_MSC_RDPS_WindGust-Min_AGL-10m_RLatLon0.09_PT006H.grib2 2026-05-09 14:40 1.0M
20260509T12Z_MSC_RDPS_WindGust_AGL-10m_RLatLon0.09_PT006H.grib2 2026-05-09 14:40 1.0M
20260509T12Z_MSC_RDPS_WindSpeed_AGL-10m_RLatLon0.09_PT006H.grib2 2026-05-09 14:40 844K
20260509T12Z_MSC_RDPS_WindSpeed_AGL-120m_RLatLon0.09_PT006H.grib2 2026-05-09 14:40 540K
20260509T12Z_MSC_RDPS_WindSpeed_AGL-40m_RLatLon0.09_PT006H.grib2 2026-05-09 14:40 544K
20260509T12Z_MSC_RDPS_WindSpeed_AGL-80m_RLatLon0.09_PT006H.grib2 2026-05-09 14:40 541K
20260509T12Z_MSC_RDPS_WindSpeed_IsbL-0001_RLatLon0.09_PT006H.grib2 2026-05-09 14:40 251K
20260509T12Z_MSC_RDPS_WindSpeed_IsbL-0005_RLatLon0.09_PT006H.grib2 2026-05-09 14:40 371K
20260509T12Z_MSC_RDPS_WindSpeed_IsbL-0010_RLatLon0.09_PT006H.grib2 2026-05-09 14:40 383K
20260509T12Z_MSC_RDPS_WindSpeed_IsbL-0020_RLatLon0.09_PT006H.grib2 2026-05-09 14:40 309K
20260509T12Z_MSC_RDPS_WindSpeed_IsbL-0030_RLatLon0.09_PT006H.grib2 2026-05-09 14:40 307K
20260509T12Z_MSC_RDPS_WindSpeed_IsbL-0050_RLatLon0.09_PT006H.grib2 2026-05-09 14:40 331K
20260509T12Z_MSC_RDPS_WindSpeed_IsbL-0100_RLatLon0.09_PT006H.grib2 2026-05-09 14:40 431K
20260509T12Z_MSC_RDPS_WindSpeed_IsbL-0150_RLatLon0.09_PT006H.grib2 2026-05-09 14:40 371K
20260509T12Z_MSC_RDPS_WindSpeed_IsbL-0175_RLatLon0.09_PT006H.grib2 2026-05-09 14:40 420K
20260509T12Z_MSC_RDPS_WindSpeed_IsbL-0200_RLatLon0.09_PT006H.grib2 2026-05-09 14:40 436K
20260509T12Z_MSC_RDPS_WindSpeed_IsbL-0225_RLatLon0.09_PT006H.grib2 2026-05-09 14:40 444K
20260509T12Z_MSC_RDPS_WindSpeed_IsbL-0250_RLatLon0.09_PT006H.grib2 2026-05-09 14:40 450K
20260509T12Z_MSC_RDPS_WindSpeed_IsbL-0275_RLatLon0.09_PT006H.grib2 2026-05-09 14:40 469K
20260509T12Z_MSC_RDPS_WindSpeed_IsbL-0300_RLatLon0.09_PT006H.grib2 2026-05-09 14:40 464K
20260509T12Z_MSC_RDPS_WindSpeed_IsbL-0350_RLatLon0.09_PT006H.grib2 2026-05-09 14:40 472K
20260509T12Z_MSC_RDPS_WindSpeed_IsbL-0400_RLatLon0.09_PT006H.grib2 2026-05-09 14:40 476K
20260509T12Z_MSC_RDPS_WindSpeed_IsbL-0450_RLatLon0.09_PT006H.grib2 2026-05-09 14:40 462K
20260509T12Z_MSC_RDPS_WindSpeed_IsbL-0500_RLatLon0.09_PT006H.grib2 2026-05-09 14:40 463K
20260509T12Z_MSC_RDPS_WindSpeed_IsbL-0550_RLatLon0.09_PT006H.grib2 2026-05-09 14:40 584K
20260509T12Z_MSC_RDPS_WindSpeed_IsbL-0600_RLatLon0.09_PT006H.grib2 2026-05-09 14:40 597K
20260509T12Z_MSC_RDPS_WindSpeed_IsbL-0650_RLatLon0.09_PT006H.grib2 2026-05-09 14:40 620K
20260509T12Z_MSC_RDPS_WindSpeed_IsbL-0700_RLatLon0.09_PT006H.grib2 2026-05-09 14:40 649K
20260509T12Z_MSC_RDPS_WindSpeed_IsbL-0750_RLatLon0.09_PT006H.grib2 2026-05-09 14:40 686K
20260509T12Z_MSC_RDPS_WindSpeed_IsbL-0800_RLatLon0.09_PT006H.grib2 2026-05-09 14:40 782K
20260509T12Z_MSC_RDPS_WindSpeed_IsbL-0850_RLatLon0.09_PT006H.grib2 2026-05-09 14:40 829K
20260509T12Z_MSC_RDPS_WindSpeed_IsbL-0875_RLatLon0.09_PT006H.grib2 2026-05-09 14:40 844K
20260509T12Z_MSC_RDPS_WindSpeed_IsbL-0900_RLatLon0.09_PT006H.grib2 2026-05-09 14:40 858K
20260509T12Z_MSC_RDPS_WindSpeed_IsbL-0925_RLatLon0.09_PT006H.grib2 2026-05-09 14:40 865K
20260509T12Z_MSC_RDPS_WindSpeed_IsbL-0950_RLatLon0.09_PT006H.grib2 2026-05-09 14:40 863K
20260509T12Z_MSC_RDPS_WindSpeed_IsbL-0970_RLatLon0.09_PT006H.grib2 2026-05-09 14:40 863K
20260509T12Z_MSC_RDPS_WindSpeed_IsbL-0985_RLatLon0.09_PT006H.grib2 2026-05-09 14:40 859K
20260509T12Z_MSC_RDPS_WindSpeed_IsbL-1000_RLatLon0.09_PT006H.grib2 2026-05-09 14:40 855K
20260509T12Z_MSC_RDPS_WindSpeed_IsbL-1015_RLatLon0.09_PT006H.grib2 2026-05-09 14:40 847K
20260509T12Z_MSC_RDPS_WindU_AGL-10m_RLatLon0.09_PT006H.grib2 2026-05-09 14:40 437K
20260509T12Z_MSC_RDPS_WindU_AGL-120m_RLatLon0.09_PT006H.grib2 2026-05-09 14:40 537K
20260509T12Z_MSC_RDPS_WindU_AGL-40m_RLatLon0.09_PT006H.grib2 2026-05-09 14:40 540K
20260509T12Z_MSC_RDPS_WindU_AGL-80m_RLatLon0.09_PT006H.grib2 2026-05-09 14:40 538K
20260509T12Z_MSC_RDPS_WindU_IsbL-0001_RLatLon0.09_PT006H.grib2 2026-05-09 14:40 243K
20260509T12Z_MSC_RDPS_WindU_IsbL-0005_RLatLon0.09_PT006H.grib2 2026-05-09 14:40 322K
20260509T12Z_MSC_RDPS_WindU_IsbL-0010_RLatLon0.09_PT006H.grib2 2026-05-09 14:40 286K
20260509T12Z_MSC_RDPS_WindU_IsbL-0020_RLatLon0.09_PT006H.grib2 2026-05-09 14:40 299K
20260509T12Z_MSC_RDPS_WindU_IsbL-0030_RLatLon0.09_PT006H.grib2 2026-05-09 14:40 299K
20260509T12Z_MSC_RDPS_WindU_IsbL-0050_RLatLon0.09_PT006H.grib2 2026-05-09 14:40 362K
20260509T12Z_MSC_RDPS_WindU_IsbL-0100_RLatLon0.09_PT006H.grib2 2026-05-09 14:40 329K
20260509T12Z_MSC_RDPS_WindU_IsbL-0150_RLatLon0.09_PT006H.grib2 2026-05-09 14:40 389K
20260509T12Z_MSC_RDPS_WindU_IsbL-0175_RLatLon0.09_PT006H.grib2 2026-05-09 14:40 414K
20260509T12Z_MSC_RDPS_WindU_IsbL-0200_RLatLon0.09_PT006H.grib2 2026-05-09 14:40 429K
20260509T12Z_MSC_RDPS_WindU_IsbL-0225_RLatLon0.09_PT006H.grib2 2026-05-09 14:40 339K
20260509T12Z_MSC_RDPS_WindU_IsbL-0250_RLatLon0.09_PT006H.grib2 2026-05-09 14:40 341K
20260509T12Z_MSC_RDPS_WindU_IsbL-0275_RLatLon0.09_PT006H.grib2 2026-05-09 14:40 355K
20260509T12Z_MSC_RDPS_WindU_IsbL-0300_RLatLon0.09_PT006H.grib2 2026-05-09 14:40 351K
20260509T12Z_MSC_RDPS_WindU_IsbL-0350_RLatLon0.09_PT006H.grib2 2026-05-09 14:40 357K
20260509T12Z_MSC_RDPS_WindU_IsbL-0400_RLatLon0.09_PT006H.grib2 2026-05-09 14:40 464K
20260509T12Z_MSC_RDPS_WindU_IsbL-0450_RLatLon0.09_PT006H.grib2 2026-05-09 14:40 467K
20260509T12Z_MSC_RDPS_WindU_IsbL-0500_RLatLon0.09_PT006H.grib2 2026-05-09 14:40 468K
20260509T12Z_MSC_RDPS_WindU_IsbL-0550_RLatLon0.09_PT006H.grib2 2026-05-09 14:40 473K
20260509T12Z_MSC_RDPS_WindU_IsbL-0600_RLatLon0.09_PT006H.grib2 2026-05-09 14:40 485K
20260509T12Z_MSC_RDPS_WindU_IsbL-0650_RLatLon0.09_PT006H.grib2 2026-05-09 14:40 505K
20260509T12Z_MSC_RDPS_WindU_IsbL-0700_RLatLon0.09_PT006H.grib2 2026-05-09 14:40 516K
20260509T12Z_MSC_RDPS_WindU_IsbL-0750_RLatLon0.09_PT006H.grib2 2026-05-09 14:40 549K
20260509T12Z_MSC_RDPS_WindU_IsbL-0800_RLatLon0.09_PT006H.grib2 2026-05-09 14:40 594K
20260509T12Z_MSC_RDPS_WindU_IsbL-0850_RLatLon0.09_PT006H.grib2 2026-05-09 14:40 634K
20260509T12Z_MSC_RDPS_WindU_IsbL-0875_RLatLon0.09_PT006H.grib2 2026-05-09 14:40 647K
20260509T12Z_MSC_RDPS_WindU_IsbL-0900_RLatLon0.09_PT006H.grib2 2026-05-09 14:40 658K
20260509T12Z_MSC_RDPS_WindU_IsbL-0925_RLatLon0.09_PT006H.grib2 2026-05-09 14:40 661K
20260509T12Z_MSC_RDPS_WindU_IsbL-0950_RLatLon0.09_PT006H.grib2 2026-05-09 14:40 658K
20260509T12Z_MSC_RDPS_WindU_IsbL-0970_RLatLon0.09_PT006H.grib2 2026-05-09 14:40 656K
20260509T12Z_MSC_RDPS_WindU_IsbL-0985_RLatLon0.09_PT006H.grib2 2026-05-09 14:40 793K
20260509T12Z_MSC_RDPS_WindU_IsbL-1000_RLatLon0.09_PT006H.grib2 2026-05-09 14:40 790K
20260509T12Z_MSC_RDPS_WindU_IsbL-1015_RLatLon0.09_PT006H.grib2 2026-05-09 14:40 832K
20260509T12Z_MSC_RDPS_WindV_AGL-10m_RLatLon0.09_PT006H.grib2 2026-05-09 14:40 437K
20260509T12Z_MSC_RDPS_WindV_AGL-120m_RLatLon0.09_PT006H.grib2 2026-05-09 14:40 537K
20260509T12Z_MSC_RDPS_WindV_AGL-40m_RLatLon0.09_PT006H.grib2 2026-05-09 14:40 540K
20260509T12Z_MSC_RDPS_WindV_AGL-80m_RLatLon0.09_PT006H.grib2 2026-05-09 14:40 538K
20260509T12Z_MSC_RDPS_WindV_IsbL-0001_RLatLon0.09_PT006H.grib2 2026-05-09 14:40 291K
20260509T12Z_MSC_RDPS_WindV_IsbL-0005_RLatLon0.09_PT006H.grib2 2026-05-09 14:40 277K
20260509T12Z_MSC_RDPS_WindV_IsbL-0010_RLatLon0.09_PT006H.grib2 2026-05-09 14:40 288K
20260509T12Z_MSC_RDPS_WindV_IsbL-0020_RLatLon0.09_PT006H.grib2 2026-05-09 14:40 300K
20260509T12Z_MSC_RDPS_WindV_IsbL-0030_RLatLon0.09_PT006H.grib2 2026-05-09 14:40 301K
20260509T12Z_MSC_RDPS_WindV_IsbL-0050_RLatLon0.09_PT006H.grib2 2026-05-09 14:40 326K
20260509T12Z_MSC_RDPS_WindV_IsbL-0100_RLatLon0.09_PT006H.grib2 2026-05-09 14:40 418K
20260509T12Z_MSC_RDPS_WindV_IsbL-0150_RLatLon0.09_PT006H.grib2 2026-05-09 14:40 386K
20260509T12Z_MSC_RDPS_WindV_IsbL-0175_RLatLon0.09_PT006H.grib2 2026-05-09 14:40 411K
20260509T12Z_MSC_RDPS_WindV_IsbL-0200_RLatLon0.09_PT006H.grib2 2026-05-09 14:40 330K
20260509T12Z_MSC_RDPS_WindV_IsbL-0225_RLatLon0.09_PT006H.grib2 2026-05-09 14:40 363K
20260509T12Z_MSC_RDPS_WindV_IsbL-0250_RLatLon0.09_PT006H.grib2 2026-05-09 14:40 366K
20260509T12Z_MSC_RDPS_WindV_IsbL-0275_RLatLon0.09_PT006H.grib2 2026-05-09 14:40 379K
20260509T12Z_MSC_RDPS_WindV_IsbL-0300_RLatLon0.09_PT006H.grib2 2026-05-09 14:40 351K
20260509T12Z_MSC_RDPS_WindV_IsbL-0350_RLatLon0.09_PT006H.grib2 2026-05-09 14:40 357K
20260509T12Z_MSC_RDPS_WindV_IsbL-0400_RLatLon0.09_PT006H.grib2 2026-05-09 14:40 359K
20260509T12Z_MSC_RDPS_WindV_IsbL-0450_RLatLon0.09_PT006H.grib2 2026-05-09 14:40 462K
20260509T12Z_MSC_RDPS_WindV_IsbL-0500_RLatLon0.09_PT006H.grib2 2026-05-09 14:40 465K
20260509T12Z_MSC_RDPS_WindV_IsbL-0550_RLatLon0.09_PT006H.grib2 2026-05-09 14:40 468K
20260509T12Z_MSC_RDPS_WindV_IsbL-0600_RLatLon0.09_PT006H.grib2 2026-05-09 14:40 480K
20260509T12Z_MSC_RDPS_WindV_IsbL-0650_RLatLon0.09_PT006H.grib2 2026-05-09 14:40 501K
20260509T12Z_MSC_RDPS_WindV_IsbL-0700_RLatLon0.09_PT006H.grib2 2026-05-09 14:40 526K
20260509T12Z_MSC_RDPS_WindV_IsbL-0750_RLatLon0.09_PT006H.grib2 2026-05-09 14:40 544K
20260509T12Z_MSC_RDPS_WindV_IsbL-0800_RLatLon0.09_PT006H.grib2 2026-05-09 14:40 590K
20260509T12Z_MSC_RDPS_WindV_IsbL-0850_RLatLon0.09_PT006H.grib2 2026-05-09 14:40 631K
20260509T12Z_MSC_RDPS_WindV_IsbL-0875_RLatLon0.09_PT006H.grib2 2026-05-09 14:40 645K
20260509T12Z_MSC_RDPS_WindV_IsbL-0900_RLatLon0.09_PT006H.grib2 2026-05-09 14:40 656K
20260509T12Z_MSC_RDPS_WindV_IsbL-0925_RLatLon0.09_PT006H.grib2 2026-05-09 14:40 661K
20260509T12Z_MSC_RDPS_WindV_IsbL-0950_RLatLon0.09_PT006H.grib2 2026-05-09 14:40 661K
20260509T12Z_MSC_RDPS_WindV_IsbL-0970_RLatLon0.09_PT006H.grib2 2026-05-09 14:40 660K
20260509T12Z_MSC_RDPS_WindV_IsbL-0985_RLatLon0.09_PT006H.grib2 2026-05-09 14:40 796K
20260509T12Z_MSC_RDPS_WindV_IsbL-1000_RLatLon0.09_PT006H.grib2 2026-05-09 14:40 792K
20260509T12Z_MSC_RDPS_WindV_IsbL-1015_RLatLon0.09_PT006H.grib2 2026-05-09 14:40 786K